{"data":{"norad_id":63422,"intl_designator":"2025-065Z","name":"STARLINK-33686","alt_names":[],"object_type":"PAYLOAD","status":"ACTIVE","operator":null,"country":"US","launch_date":"2025-03-31","launch_site_code":"AFETR","launch_vehicle":null,"mission":null,"orbit_class":"UNKNOWN","rcs_meters":null,"size_class":null,"mass_kg":null,"dimensions":null,"purposes":["comms"],"wikipedia_slug":null,"has_3d_model":false,"image_url":null,"decayed_at":null,"tle_current":{"epoch":"2026-09-20T21:34:45.358176Z","epoch_age_seconds":124397,"freshness":"FRESH","line1":"1 63422U 25065Z   26263.89913609  .00009318  00000+0  34769-3 0  9991","line2":"2 63422  43.0032  84.6663 0001922 254.4156 105.6484 15.27582116 82696","mean_motion":15.27582116,"eccentricity":0.0001922,"inclination_deg":43.0032,"raan_deg":84.6663,"arg_perigee_deg":254.4156,"mean_anomaly_deg":105.6484,"bstar":0.00034769,"rev_number":8269,"period_min":94.266618135768,"perigee_km":481.72404123187,"apogee_km":484.36147873161,"semimajor_km":6861.1797599817,"source":"CELESTRAK","updated_at":"2026-09-21T09:00:34.982482Z"}}}